[[{"header":{"parameterUnit":"m.s-1","parameterCategory":1,"la1":30.2991,"la2":30.254,"lo1":-89.0895,"lo2":-89.0444,"dy":0.0017,"dx":0.0017,"nx":28,"ny":28,"refTime":"2025-08-14T21:00:00:Z","depth":0,"parameterNumber":2,"parameterNumberName":"U-component_of_WINDS"},"data":[0,0,0,0,0,0,0,0,0,0,0,0,0,0,0,0,0,0,0,0,0,0,0,0,0,0,0,0,0,0,0,0,0,0,0,0,0,0,0,0,0,0,0,0,0,0,0,0,0,0,0,0,0,0,0,0,0,0,0.3265,0.3266,0,0.3369,0.337,0.3371,0.3422,0.3422,0.3422,0.3422,0.3529,0.3532,0.3535,0,0,0,0,0,0,0,0,0,0,0,0,0,0.3108,0.3111,0.3265,0.3266,0.3267,0.3369,0.337,0.3372,0.3422,0.3422,0.3422,0.3422,0.3528,0.3532,0.3535,0,0,0,0,0,0,0,0,0,0,0,0,0,0.3191,0.3112,0.3264,0.3305,0.3309,0.3368,0.337,0.3372,0.3422,0.3422,0.3422,0.3422,0.3527,0.3531,0.3536,0.3563,0,0,0.3549,0.3551,0,0,0,0,0,0,0,0,0.3186,0.3196,0.3297,0.3302,0.3307,0.3382,0.3354,0.3436,0.3422,0.3379,0.3422,0.3422,0.348,0.3489,0.3508,0.3568,0.3573,0.3549,0.3552,0.3554,0.3555,0,0,0,0,0,0,0,0.318,0.3192,0.3306,0.3299,0.3305,0.3317,0.3329,0.337,0.3429,0.3383,0.3387,0.3398,0.3483,0.3504,0.3511,0.3574,0.3549,0.3553,0.3556,0.3557,0.366,0.366,0,0,0,0,0,0,0.3168,0.3187,0.3303,0.3309,0.3245,0.332,0.3333,0.3358,0.3428,0.3439,0.3398,0.34,0.3497,0.3506,0.3515,0.3551,0.3554,0.3558,0.356,0.366,0.366,0.366,0,0,0,0,0,0,0.3164,0.3178,0.3298,0.3249,0.3265,0.3323,0.3351,0.336,0.3381,0.344,0.3451,0.3409,0.3497,0.3509,0.355,0.3555,0.356,0.3564,0.366,0.366,0.366,0.3623,0,0,0,0,0,0,0.316,0.3176,0.3188,0.3249,0.3268,0.3332,0.3351,0.3362,0.3388,0.3392,0.3453,0.3463,0.3498,0.3543,0.3554,0.3561,0.3567,0.3659,0.366,0.366,0.3624,0.3622,0.362,0,0,0,0,0,0.3154,0.3173,0.3188,0.3202,0.3283,0.3332,0.3343,0.3383,0.3389,0.34,0.3438,0.3461,0.3553,0.3547,0.356,0.3568,0.3659,0.366,0.366,0.3625,0.3622,0.362,0,0,0,0,0,0,0.3112,0.3182,0.3199,0.3239,0.3279,0.3341,0.3357,0.3379,0.3418,0.342,0.3468,0.3481,0.3517,0.3547,0.354,0.3597,0.3608,0.3611,0.3577,0.3575,0.3573,0.3565,0.357,0,0,0,0,0,0.3107,0.3141,0.3201,0.323,0.325,0.3299,0.3322,0.3349,0.3393,0.341,0.3451,0.3492,0.353,0.3554,0.3593,0.3628,0.3641,0.364,0.3638,0.3636,0.3638,0.3657,0.3657,0.3661,0.3661,0.3661,0,0,0.3098,0.3141,0.3159,0.3223,0.3257,0.3291,0.3313,0.3349,0.3374,0.3415,0.3457,0.3487,0.3537,0.3574,0.3593,0.36,0.3639,0.3636,0.3634,0.3638,0.3658,0.3657,0.3657,0.3661,0.3661,0.3661,0,0,0.3098,0.3134,0.3162,0.3196,0.3247,0.328,0.3286,0.3344,0.3366,0.3407,0.3439,0.3469,0.3534,0.3568,0.3593,0.3603,0.3626,0.3614,0.3604,0.3623,0.3622,0.3622,0.3625,0.3626,0.3616,0.3616,0.3616,0,0.3081,0.3133,0.3174,0.3207,0.3233,0.3272,0.33,0.333,0.3391,0.3408,0.3415,0.3496,0.3532,0.3577,0.3579,0.3599,0.3607,0.3608,0.3619,0.3619,0.362,0.3623,0.3624,0.3614,0.3615,0.3615,0.3615,0,0.3108,0.3144,0.316,0.3217,0.3246,0.3276,0.3321,0.3344,0.3368,0.3399,0.3441,0.3485,0.3532,0.3545,0.3569,0.3593,0.3596,0.361,0.3622,0.3617,0.3621,0.3623,0.3612,0.3612,0.3613,0.3613,0,0,0.3087,0.3165,0.317,0.3196,0.3254,0.3282,0.3313,0.3359,0.3377,0.3418,0.3445,0.3497,0.351,0.3539,0.3567,0.3583,0.3587,0.3595,0.3597,0.3592,0.3615,0.3604,0.3605,0.3602,0.3602,0.3602,0.3611,0,0.3095,0.3153,0.319,0.3233,0.3266,0.3301,0.3328,0.3366,0.3396,0.3428,0.3461,0.3497,0.3512,0.3529,0.3547,0.3583,0.3592,0.3582,0.3627,0.3628,0.3613,0.3607,0.3596,0.3601,0.3613,0.3613,0.3613,0,0.3113,0.3152,0.3198,0.3251,0.3266,0.3289,0.3333,0.3363,0.3406,0.3427,0.3457,0.3485,0.3518,0.3526,0.3573,0.3565,0.3585,0.3605,0.3606,0.3612,0.362,0.3612,0.3605,0.3605,0.3616,0.3616,0.3616,0,0.3092,0.3155,0.3191,0.3212,0.3275,0.329,0.3317,0.336,0.3384,0.3422,0.3438,0.348,0.3502,0.3533,0.3571,0.3574,0.3613,0.3625,0.363,0.3629,0.3638,0.3637,0.3633,0.365,0.365,0.365,0.365,0,0.3098,0.3125,0.3182,0.3204,0.3234,0.3276,0.3304,0.3334,0.3372,0.3399,0.3432,0.3457,0.3505,0.3536,0.3566,0.3599,0.3609,0.3626,0.3633,0.3623,0.3621,0.3637,0.3637,0.3651,0.3651,0.3651,0.3651,0,0.308,0.312,0.3161,0.3216,0.323,0.325,0.3297,0.3319,0.335,0.3384,0.3394,0.3443,0.348,0.352,0.3572,0.3591,0.3623,0.3634,0.3608,0.3612,0.3616,0.3614,0.3622,0.3625,0.364,0.364,0.364,0,0.3081,0.3103,0.316,0.318,0.3206,0.3239,0.3264,0.3304,0.3328,0.3378,0.3393,0.3433,0.3467,0.3525,0.3565,0.3604,0.3616,0.3615,0.3622,0.361,0.3615,0.3613,0.3615,0.3613,0.3613,0.3613,0.3613,0,0.3079,0.3097,0.3131,0.3172,0.32,0.3234,0.3269,0.3284,0.3331,0.3356,0.3395,0.3421,0.3472,0.3511,0.3554,0.3581,0.3604,0.361,0.3613,0.3603,0.3587,0.3595,0.3602,0.361,0.361,0.361,0.361,0.3611,0.3071,0.309,0.3133,0.317,0.32,0.3232,0.3254,0.3287,0.332,0.3365,0.3386,0.3424,0.3465,0.3525,0.3551,0.3581,0.3588,0.3593,0.3595,0.3595,0.3592,0.3582,0.3589,0.3589,0.359,0.359,0.359,0,0.3069,0.3098,0.3131,0.3179,0.3207,0.3225,0.3265,0.3287,0.332,0.3356,0.3388,0.3431,0.3468,0.3509,0.3548,0.3564,0.3576,0.3573,0.3572,0.3578,0.3584,0.3577,0.3563,0.3563,0.3563,0.3563,0.3563,0.3563,0.3072,0.3106,0.3129,0.3178,0.3206,0.3244,0.3264,0.3293,0.3321,0.3368,0.3398,0.3425,0.3463,0.3504,0.3539,0.355,0.3563,0.3557,0.3571,0.3576,0.3578,0.358,0.3573,0.3559,0.3559,0.3563,0.3563,0.3563]},{"header":{"parameterUnit":"m.s-1","parameterCategory":1,"la1":30.2991,"la2":30.254,"lo1":-89.0895,"lo2":-89.0444,"dy":0.0017,"dx":0.0017,"nx":28,"ny":28,"refTime":"2025-08-14T21:00:00:Z","depth":0,"parameterNumber":3,"parameterNumberName":"V-component_of_WINDS"},"data":[0,0,0,0,0,0,0,0,0,0,0,0,0,0,0,0,0,0,0,0,0,0,0,0,0,0,0,0,0,0,0,0,0,0,0,0,0,0,0,0,0,0,0,0,0,0,0,0,0,0,0,0,0,0,0,0,0,0,4.9854,4.9854,0,4.9839,4.9838,4.9838,4.9848,4.9848,4.9849,4.9849,4.9829,4.9828,4.9827,0,0,0,0,0,0,0,0,0,0,0,0,0,4.9887,4.9886,4.9854,4.9854,4.9853,4.9839,4.9838,4.9838,4.9848,4.9848,4.9849,4.985,4.983,4.9828,4.9827,0,0,0,0,0,0,0,0,0,0,0,0,0,4.9872,4.9886,4.9854,4.9857,4.9857,4.9839,4.9838,4.9838,4.9848,4.9849,4.9849,4.985,4.983,4.9829,4.9827,4.9804,0,0,4.9823,4.9822,0,0,0,0,0,0,0,0,4.9873,4.9871,4.9856,4.9856,4.9856,4.9846,4.9843,4.9827,4.9848,4.9851,4.9849,4.985,4.9834,4.9832,4.9828,4.9803,4.9802,4.9822,4.9822,4.9821,4.9821,0,0,0,0,0,0,0,4.9874,4.9871,4.9848,4.9856,4.9856,4.9857,4.9856,4.984,4.9839,4.9851,4.9851,4.985,4.9834,4.9829,4.9827,4.9802,4.9823,4.9821,4.982,4.982,4.9757,4.9756,0,0,0,0,0,0,4.9875,4.9872,4.9848,4.9847,4.9867,4.9856,4.9855,4.9849,4.9839,4.9838,4.9849,4.985,4.9831,4.9829,4.9827,4.9799,4.9821,4.982,4.9819,4.9758,4.9757,4.9756,0,0,0,0,0,0,4.9876,4.9873,4.9849,4.986,4.9857,4.9855,4.9848,4.9848,4.9843,4.9838,4.9837,4.9845,4.9832,4.9829,4.981,4.9798,4.9819,4.9818,4.9759,4.9757,4.9756,4.9743,0,0,0,0,0,0,4.9877,4.9873,4.9865,4.986,4.9856,4.9833,4.9847,4.9847,4.9841,4.9842,4.9833,4.9832,4.9832,4.9812,4.9808,4.9796,4.9817,4.976,4.9758,4.9757,4.9744,4.9741,4.9738,0,0,0,0,0,4.9878,4.9861,4.9865,4.9862,4.9847,4.9833,4.9831,4.9832,4.984,4.9831,4.9828,4.9833,4.98,4.981,4.9806,4.9793,4.976,4.9759,4.9757,4.9745,4.9742,4.9739,0,0,0,0,0,0,4.9864,4.986,4.9865,4.9846,4.984,4.9835,4.9824,4.9828,4.9818,4.982,4.982,4.9818,4.9798,4.9794,4.9805,4.977,4.9781,4.9779,4.9774,4.977,4.9768,4.9769,4.9815,0,0,0,0,0,4.9859,4.9849,4.9846,4.983,4.9827,4.9826,4.982,4.9822,4.9815,4.9811,4.9807,4.9798,4.9786,4.9778,4.9767,4.9744,4.9741,4.9733,4.973,4.9728,4.9725,4.9712,4.9708,4.975,4.975,4.975,0,0,4.9848,4.9845,4.9839,4.9827,4.9823,4.9811,4.9824,4.9811,4.9802,4.9809,4.9791,4.9787,4.9778,4.9757,4.9747,4.9753,4.9713,4.9726,4.9724,4.9722,4.971,4.9706,4.9702,4.9749,4.9749,4.9749,0,0,4.9822,4.9819,4.9805,4.9801,4.9794,4.9794,4.9791,4.9785,4.9783,4.9766,4.977,4.9759,4.9738,4.9731,4.9725,4.9697,4.97,4.9693,4.9678,4.9665,4.9662,4.9659,4.9648,4.9644,4.9691,4.9691,4.9691,0,4.9809,4.9793,4.9797,4.9785,4.9779,4.9786,4.9771,4.9766,4.9756,4.9751,4.9757,4.9732,4.9726,4.9703,4.9696,4.9691,4.9686,4.9694,4.9662,4.9659,4.9656,4.9646,4.9642,4.969,4.969,4.969,4.969,0,4.9777,4.9766,4.9755,4.9747,4.974,4.9726,4.9726,4.9718,4.9721,4.9719,4.97,4.9694,4.9681,4.9676,4.9678,4.9653,4.9656,4.9663,4.9673,4.9651,4.9641,4.9638,4.9688,4.9689,4.9689,4.9689,0,0,4.9741,4.9736,4.9731,4.9727,4.9721,4.9712,4.9697,4.9687,4.968,4.9672,4.9659,4.9642,4.9648,4.964,4.9641,4.963,4.9607,4.9637,4.9637,4.9631,4.9578,4.9573,4.9568,4.9609,4.9609,4.9608,4.9578,0,4.9714,4.9692,4.9695,4.9672,4.9661,4.9668,4.9656,4.965,4.9648,4.9637,4.9635,4.9622,4.9631,4.9627,4.9616,4.9612,4.9596,4.9614,4.9596,4.9595,4.9597,4.9563,4.9557,4.953,4.9575,4.9574,4.9573,0,4.968,4.9673,4.965,4.9645,4.964,4.9629,4.9619,4.961,4.9602,4.9602,4.9594,4.9597,4.9581,4.9593,4.9571,4.9583,4.9576,4.9572,4.9571,4.9569,4.9582,4.9559,4.9521,4.9517,4.9567,4.9568,4.9568,0,4.9655,4.964,4.9624,4.962,4.9614,4.9606,4.9603,4.9597,4.959,4.958,4.9576,4.9564,4.9557,4.9548,4.9547,4.9556,4.9523,4.9536,4.9521,4.9521,4.9513,4.9513,4.9473,4.951,4.951,4.951,4.951,0,4.9625,4.961,4.9613,4.9603,4.9586,4.9589,4.9572,4.9569,4.9564,4.9552,4.9557,4.9546,4.9546,4.9534,4.9533,4.9513,4.951,4.9508,4.9508,4.9507,4.9507,4.9502,4.9503,4.9509,4.9509,4.9509,4.9509,0,4.9594,4.9595,4.9578,4.9574,4.9573,4.9561,4.9557,4.9546,4.9545,4.9531,4.9527,4.9525,4.9511,4.9509,4.9493,4.9492,4.9469,4.9471,4.9472,4.9471,4.9457,4.9458,4.941,4.9404,4.9446,4.9445,4.9445,0,4.9573,4.9563,4.9558,4.9552,4.9548,4.9538,4.9531,4.9533,4.9526,4.9517,4.9507,4.9495,4.9484,4.9461,4.9457,4.9444,4.9445,4.943,4.9443,4.9443,4.9444,4.9444,4.9443,4.9427,4.9426,4.9426,4.9425,0,4.9537,4.9539,4.953,4.9521,4.9514,4.9506,4.95,4.9494,4.9495,4.9486,4.9473,4.9465,4.9449,4.9435,4.9423,4.9418,4.9421,4.9422,4.9417,4.9416,4.9417,4.9415,4.9463,4.9422,4.9423,4.9423,4.9423,4.9423,4.951,4.9501,4.9496,4.9486,4.9482,4.9475,4.9466,4.9464,4.9454,4.9442,4.9443,4.9428,4.942,4.9404,4.9398,4.9385,4.939,4.9384,4.9383,4.9381,4.9379,4.942,4.9383,4.9383,4.9383,4.9383,4.9383,0,4.9474,4.9472,4.9462,4.9454,4.9445,4.9451,4.9444,4.9436,4.9424,4.9417,4.9407,4.9391,4.9378,4.9373,4.936,4.9351,4.9352,4.9347,4.9347,4.9346,4.9376,4.9381,4.9346,4.9346,4.9346,4.9346,4.9346,4.9346,4.9454,4.9438,4.9439,4.942,4.9417,4.9404,4.9399,4.9393,4.9388,4.9371,4.9361,4.9358,4.9351,4.9338,4.9326,4.9324,4.9319,4.9313,4.9312,4.934,4.9344,4.9347,4.9352,4.9312,4.9312,4.9283,4.9283,4.9283]}]]